User: anonymous
Location: Griffin Ranch
(33.6186°N, 110.6622°W)
Time: 03:26:00
(UTC-07:00)
Language:

Cosmos 1812 - Orbit

View from above orbital plane
View from above orbital plane
View from above satellite
View from above satellite

Ground track
Ground track

The orbit data is extracted from the following two-line orbital elements,

1 17295U 87003A   14274.80936383  .00005430  00000-0  33502-3 0  4364
2 17295 082.5195 035.9774 0003842 313.0098 160.8365 15.09732185509376
Epoch (UTC): 01 October 2014 19:25:29
Eccentricity: 0.0003842
inclination: 82.5195°
perigee height: 534 km
apogee height: 539 km
right ascension of ascending node: 35.9774°
argument of perigee: 313.0098°
revolutions per day: 15.09732185
mean anomaly at epoch: 160.8365°
orbit number at epoch: 50937

The dashed part of the orbit path shows where the satellite is in the earth's shadow,  

DLR